Precipitable_Water
0.58 0.57 0.56 0.57 0.57 0.58 0.57 0.58 0.58 0.56 0.56 0.57 0.58 0.57 0.54 0.48 0.49 0.70 0.95 1.03 1.06 1.13 1.24 1.21 1.28 1.30 1.25 1.25 1.25 1.24 1.33 1.43 1.49
0.50 0.52 0.53 0.54 0.54 0.53 0.52 0.52 0.52 0.51 0.49 0.49 0.50 0.50 0.49 0.46 0.51 0.62 0.84 1.01 1.03 1.09 1.19 1.20 1.14 1.28 1.30 1.20 1.15 1.26 1.32 1.32 1.32
0.53 0.53 0.54 0.54 0.55 0.53 0.53 0.52 0.53 0.53 0.52 0.51 0.50 0.47 0.47 0.45 0.50 0.61 0.70 0.89 0.98 1.00 1.00 0.98 0.97 1.06 1.04 1.04 1.07 1.15 1.20 1.29 1.34
0.52 0.50 0.52 0.53 0.52 0.51 0.52 0.50 0.48 0.45 0.46 0.51 0.49 0.50 0.45 0.45 0.53 0.58 0.62 0.69 0.78 0.86 0.89 0.87 0.83 0.79 0.81 0.88 1.07 1.12 1.15 1.27 1.27
0.50 0.47 0.47 0.49 0.44 0.42 0.42 0.41 0.38 0.34 0.36 0.39 0.40 0.44 0.46 0.48 0.52 0.55 0.58 0.60 0.63 0.65 0.70 0.72 0.72 0.73 0.78 0.78 0.85 0.94 1.07 1.14 1.19
0.47 0.45 0.42 0.39 0.37 0.35 0.34 0.34 0.33 0.29 0.29 0.31 0.32 0.35 0.43 0.46 0.52 0.56 0.60 0.58 0.64 0.60 0.62 0.70 0.75 0.80 0.79 0.78 0.75 0.76 0.79 0.86 1.01
0.42 0.40 0.35 0.32 0.29 0.26 0.26 0.26 0.24 0.23 0.25 0.27 0.27 0.29 0.40 0.51 0.55 0.58 0.60 0.61 0.72 0.76 0.74 0.72 0.74 0.75 0.74 0.72 0.76 0.77 0.77 0.78 0.78
0.39 0.35 0.30 0.27 0.26 0.24 0.25 0.25 0.24 0.24 0.23 0.22 0.24 0.27 0.36 0.49 0.56 0.60 0.60 0.61 0.68 0.66 0.71 0.72 0.72 0.71 0.70 0.73 0.74 0.70 0.70 0.72 0.71
0.36 0.33 0.30 0.27 0.28 0.27 0.28 0.27 0.28 0.26 0.27 0.26 0.24 0.26 0.34 0.44 0.53 0.57 0.58 0.58 0.60 0.63 0.72 0.75 0.73 0.72 0.89 0.85 0.81 0.78 0.75 0.72 0.71
0.35 0.32 0.31 0.30 0.33 0.32 0.31 0.31 0.31 0.30 0.29 0.29 0.26 0.27 0.34 0.45 0.51 0.53 0.55 0.54 0.55 0.59 0.62 0.66 0.69 0.74 0.75 0.80 0.78 0.75 0.70 0.68 0.72
0.35 0.33 0.33 0.35 0.36 0.38 0.36 0.34 0.33 0.32 0.32 0.32 0.32 0.29 0.31 0.41 0.50 0.54 0.54 0.54 0.51 0.53 0.59 0.62 0.62 0.63 0.64 0.65 0.65 0.66 0.66 0.64 0.64
0.37 0.36 0.37 0.38 0.39 0.39 0.39 0.38 0.38 0.37 0.35 0.32 0.33 0.33 0.32 0.41 0.47 0.53 0.54 0.53 0.51 0.50 0.49 0.50 0.53 0.55 0.58 0.60 0.62 0.61 0.59 0.59 0.60
0.40 0.40 0.40 0.40 0.40 0.40 0.39 0.38 0.38 0.39 0.39 0.38 0.35 0.33 0.34 0.36 0.47 0.55 0.56 0.52 0.51 0.49 0.47 0.44 0.42 0.41 0.42 0.43 0.48 0.51 0.50 0.49 0.50
0.46 0.45 0.44 0.43 0.42 0.41 0.41 0.40 0.40 0.38 0.38 0.39 0.38 0.37 0.36 0.37 0.48 0.53 0.56 0.56 0.54 0.51 0.49 0.46 0.39 0.37 0.38 0.39 0.39 0.40 0.42 0.42 0.43
0.50 0.48 0.46 0.46 0.43 0.43 0.44 0.43 0.43 0.42 0.41 0.40 0.38 0.39 0.41 0.41 0.46 0.52 0.55 0.57 0.58 0.57 0.54 0.50 0.46 0.47 0.48 0.48 0.45 0.45 0.45 0.45 0.45
0.52 0.50 0.48 0.47 0.45 0.46 0.47 0.45 0.43 0.42 0.44 0.40 0.39 0.39 0.44 0.46 0.51 0.53 0.56 0.59 0.62 0.62 0.60 0.56 0.54 0.55 0.57 0.57 0.55 0.56 0.55 0.50 0.48
0.53 0.52 0.50 0.51 0.50 0.51 0.50 0.47 0.44 0.44 0.47 0.42 0.39 0.33 0.37 0.44 0.45 0.48 0.51 0.57 0.62 0.61 0.59 0.59 0.59 0.59 0.59 0.59 0.59 0.59 0.60 0.61 0.62
0.57 0.55 0.54 0.54 0.55 0.51 0.51 0.51 0.48 0.43 0.48 0.49 0.41 0.34 0.32 0.37 0.42 0.42 0.44 0.47 0.49 0.51 0.52 0.54 0.54 0.55 0.56 0.58 0.58 0.58 0.59 0.60 0.63
0.57 0.56 0.56 0.56 0.55 0.52 0.52 0.53 0.51 0.48 0.43 0.45 0.45 0.45 0.41 0.32 0.30 0.38 0.40 0.41 0.42 0.43 0.44 0.44 0.45 0.46 0.48 0.50 0.52 0.54 0.55 0.57 0.61
0.56 0.57 0.58 0.58 0.57 0.54 0.52 0.49 0.47 0.45 0.41 0.40 0.40 0.39 0.39 0.39 0.34 0.28 0.33 0.37 0.37 0.38 0.38 0.37 0.36 0.38 0.41 0.44 0.46 0.50 0.52 0.55 0.58
Wind_Speed
14 15 15 15 15 16 16 16 17 16 16 16 16 16 16 16 16 16 17 17 17 17 17 18 18 18 19 19 19 19 20 19 18
14 15 15 16 16 16 16 17 17 16 16 16 16 15 15 15 15 15 15 15 16 17 17 18 18 18 19 19 20 19 20 20 20
14 15 15 16 17 16 16 17 17 17 16 16 16 15 15 15 14 14 14 14 15 16 17 18 19 20 20 19 20 20 20 20 20
14 15 16 17 18 17 17 17 18 17 17 16 16 16 15 14 14 14 14 15 15 16 17 18 19 19 19 18 17 17 17 18 19
15 16 16 17 18 18 18 18 18 18 17 17 17 16 15 14 14 14 14 15 15 16 16 16 15 15 15 15 16 16 17 16 15
15 16 17 18 18 19 19 19 19 19 18 18 18 17 16 15 15 15 14 14 14 14 14 13 12 12 12 13 13 14 14 15 15
16 17 18 19 20 20 20 20 20 20 20 19 19 18 17 16 16 16 15 15 13 12 11 12 12 12 12 11 10 10 11 11 12
17 18 19 20 20 21 21 21 22 21 21 21 20 19 18 18 17 17 16 15 14 14 13 12 11 11 11 11 11 11 11 11 12
18 19 20 21 21 22 22 22 23 22 22 22 22 21 20 20 19 18 18 17 16 15 14 13 13 12 11 11 11 11 12 12 12
19 20 21 22 22 23 23 24 24 23 23 23 23 23 22 22 21 21 20 19 18 17 16 16 15 14 14 14 14 14 13 13 13
20 22 23 23 24 24 24 25 24 24 25 24 24 24 24 24 23 23 22 21 20 19 18 18 17 17 16 16 16 16 15 15 15
22 23 24 25 25 25 25 25 25 26 26 26 26 26 25 24 24 24 24 23 22 21 20 20 20 19 19 18 18 18 18 18 18
24 25 25 26 26 26 27 27 27 28 28 28 28 27 26 25 24 23 23 23 23 22 22 22 22 22 21 21 21 21 21 21 20
25 26 26 27 27 27 28 28 29 30 30 30 29 28 26 24 22 21 21 21 21 22 22 22 22 22 22 22 21 22 22 22 22
26 27 27 28 28 29 29 30 31 30 31 30 29 26 23 21 20 20 20 21 21 21 21 22 21 21 22 22 22 22 23 23 23
27 27 28 29 29 30 31 31 32 31 31 29 27 23 21 19 20 21 22 22 22 23 23 23 24 24 24 24 24 24 24 24 24
28 28 29 30 31 32 32 32 32 30 29 26 24 23 22 21 22 21 21 22 23 24 24 25 26 27 27 27 27 26 26 26 26
29 30 31 31 32 32 32 31 29 28 27 26 24 23 23 26 23 24 22 23 23 24 26 27 28 29 29 29 29 29 28 28 28
30 31 31 32 32 31 30 29 29 28 28 27 25 26 26 25 25 26 26 27 27 27 28 28 29 30 30 30 30 30 30 30 29
31 31 31 31 31 31 31 31 30 30 29 29 29 28 28 28 28 29 29 30 29 29 28 30 30 30 30 30 30 31 32 32 32
Wind_Direction
348 347 345 344 342 339 338 336 333 330 326 322 317 313 309 304 299 294 290 285 281 278 275 274 274 274 273 270 268 265 261 260 261
344 344 344 344 342 340 340 340 338 335 331 327 324 319 314 310 306 301 296 291 285 279 278 276 275 275 275 270 268 265 263 261 260
340 341 343 343 342 339 339 339 339 337 334 329 328 324 319 314 309 305 300 296 290 285 281 280 277 275 275 274 268 264 264 262 260
336 337 337 339 339 337 335 334 334 333 333 331 327 325 322 317 309 304 300 296 292 288 284 282 280 278 275 270 268 266 263 263 261
331 332 333 333 336 336 333 332 330 328 328 327 325 321 318 314 308 303 298 295 291 289 287 285 283 280 275 271 267 265 263 264 265
329 330 331 330 330 330 329 328 326 324 322 321 320 316 312 307 302 299 298 295 292 288 286 284 282 280 278 275 271 267 264 262 262
325 327 327 327 327 326 325 325 323 321 318 316 314 311 307 303 299 295 293 291 289 287 286 285 282 279 277 274 270 267 266 265 264
322 324 325 325 324 324 323 322 321 318 316 313 310 305 302 299 295 292 291 288 284 280 282 281 280 277 274 270 267 269 267 266 266
319 321 322 323 322 322 321 321 320 317 314 310 307 303 297 293 291 288 287 285 281 277 275 275 275 273 274 269 267 267 269 269 267
316 318 320 320 320 320 319 319 318 316 314 311 307 301 295 290 287 285 285 283 279 274 272 271 272 271 269 269 269 270 269 268 266
314 315 317 317 317 317 317 317 316 314 313 310 308 302 296 289 284 282 281 281 278 275 272 271 270 270 269 268 268 268 267 268 267
311 313 314 315 315 315 315 315 314 313 312 310 307 304 298 292 286 280 277 277 275 274 272 270 269 269 269 268 267 267 268 268 268
309 310 311 312 313 314 313 313 312 312 311 309 307 303 298 294 288 283 278 274 273 272 272 271 270 269 269 269 268 268 268 267 267
306 308 309 310 311 311 312 311 311 311 310 309 306 303 298 292 289 285 280 278 275 273 272 272 272 270 269 269 269 269 269 268 268
305 306 307 308 309 310 310 310 310 309 309 308 307 303 301 293 290 287 282 281 277 275 273 273 272 272 271 270 270 271 269 269 268
303 305 306 307 308 308 309 309 309 309 310 308 307 302 300 294 292 289 285 282 278 276 273 273 272 272 273 272 271 271 270 269 268
302 304 305 306 307 308 308 308 308 308 310 308 304 302 297 291 296 293 289 283 280 278 276 274 273 273 273 271 270 271 271 269 269
301 303 304 305 306 306 307 308 308 308 308 308 302 299 294 295 290 291 288 287 282 278 278 277 275 275 273 271 270 269 270 270 269
301 302 303 305 306 306 306 306 306 305 305 304 301 298 293 291 290 290 287 286 283 282 279 277 276 275 272 271 270 269 269 269 268
301 301 303 304 305 305 305 304 303 303 302 300 299 297 294 291 287 286 286 286 282 282 279 278 276 275 273 272 270 270 269 269 268